Location: Coopersdale
(40.3556°N, 78.9372°W)
Time: 03:11:30
(UTC+00:00)

Tiros 1 despin weight - Pass Details

Date: 25 January 2021
Orbit: 593 x 642 km, 48.2° (Epoch: 02 March)

Event Time Altitude Azimuth Distance (km) Brightness Sun altitude
Rises 16:56:48 0° 181° (S) 2,903 ? 30.4°
Reaches altitude 10° 17:00:57 10° 145° (SE) 1,989 ? 30.5°
Maximum altitude 17:02:07 11° 130° (SE) 1,929 ? 30.6°
Drops below altitude 10° 17:03:16 10° 115° (ESE) 1,984 ? 30.6°
Sets 17:07:23 0° 79° (E) 2,880 ? 30.7°
